FW3031 Weather Reports


time (UTC)temp
C
wind
direction
speed
KPH
gust
KPH
rain 1hr
cm
rain 24hr
cm
rain mn
cm
humidity
%
barometer
mb
20260906085015 21 190 0.0 0.0 0.00 0.15 0.00 84 1014.1
20260906084603 21 0 0.0 0.0 0.00 0.15 0.00 84 1011.9
20260906084514 21 190 0.0 0.0 0.00 0.15 0.00 84 1014.1
20260906084020 21 190 0.0 0.0 0.00 0.15 0.00 82 1014.1
20260906083512 21 190 0.0 0.0 0.00 0.15 0.00 81 1014.1
20260906083103 21 0 0.0 0.0 0.00 0.15 0.00 81 1012.0
20260906083012 21 190 0.0 0.0 0.00 0.15 0.00 81 1014.1
20260906082513 21 190 0.0 0.0 0.00 0.15 0.00 81 1014.2
20260906082011 21 190 0.0 0.0 0.00 0.15 0.00 82 1014.2
20260906081619 21 0 0.0 0.0 0.00 0.15 0.00 81 1012.0
20260906081512 21 190 0.0 0.0 0.00 0.15 0.00 82 1014.2
20260906081010 21 190 0.0 3.2 0.00 0.15 0.00 82 1014.2
20260906080509 21 190 0.0 3.2 0.00 0.15 0.00 81 1014.3
20260906080108 21 0 0.0 6.4 0.00 0.15 0.00 81 1012.1
20260906080009 21 190 0.0 1.6 0.00 0.15 0.00 81 1014.3
20260906075507 21 190 0.0 6.4 0.00 0.15 0.00 81 1014.3
20260906075006 21 190 1.6 6.4 0.00 0.15 0.00 80 1014.5
20260906074617 21 0 0.0 4.8 0.00 0.15 0.00 80 1012.3
20260906074505 21 190 0.0 3.2 0.00 0.15 0.00 80 1014.6
20260906074003 21 190 0.0 4.8 0.00 0.15 0.00 79 1014.7
20260906073503 21 190 0.0 4.8 0.00 0.15 0.00 78 1014.9
20260906073107 22 190 0.0 4.8 0.00 0.15 0.00 77 1012.7
20260906073001 22 190 0.0 4.8 0.00 0.15 0.00 77 1014.9
20260906072600 22 190 0.0 3.2 0.00 0.15 0.00 76 1014.9
20260906072101 22 190 0.0 0.0 0.00 0.15 0.00 73 1014.9
20260906071605 22 0 0.0 0.0 0.00 0.15 0.00 73 1012.8
20260906071600 22 190 0.0 0.0 0.00 0.15 0.00 74 1015.1
20260906071101 22 190 0.0 3.2 0.00 0.15 0.00 73 1015.1
20260906070558 22 190 0.0 6.4 0.00 0.15 0.00 73 1015.2
20260906070114 22 190 3.2 6.4 0.00 0.15 0.00 72 1013.2
20260906070056 22 190 1.6 6.4 0.00 0.15 0.00 73 1015.3
20260906065555 22 190 0.0 1.6 0.00 0.20 0.00 74 1015.4
20260906065054 22 190 0.0 4.8 0.00 0.20 0.00 73 1015.4
20260906064602 22 190 0.0 3.2 0.00 0.18 0.00 73 1013.4
20260906064557 22 190 0.0 4.8 0.00 0.20 0.00 73 1015.6
20260906064054 22 190 0.0 6.4 0.00 0.20 0.00 73 1015.6
20260906063551 22 190 0.0 6.4 0.00 0.20 0.00 73 1015.5
20260906063102 22 190 3.2 8.0 0.00 0.18 0.00 72 1013.3
20260906063052 22 190 3.2 8.0 0.00 0.20 0.00 72 1015.5
20260906062549 22 190 1.6 8.0 0.00 0.20 0.00 72 1015.6
20260906062049 23 190 1.6 6.4 0.00 0.20 0.00 71 1015.6
20260906061611 23 190 1.6 4.8 0.00 0.18 0.00 70 1013.3
20260906061548 23 190 1.6 4.8 0.00 0.20 0.00 70 1015.6
20260906061046 23 190 0.0 4.8 0.00 0.20 0.00 70 1015.6
20260906060545 23 190 0.0 8.0 0.00 0.20 0.00 71 1015.6
20260906060112 23 190 4.8 8.0 0.00 0.18 0.00 69 1013.3
20260906060043 23 190 4.8 8.0 0.00 0.20 0.00 69 1015.5
20260906055543 23 190 0.0 3.2 0.00 0.23 0.20 71 1015.6
20260906055044 23 190 0.0 1.6 0.00 0.23 0.20 71 1015.6
20260906054614 23 0 0.0 4.8 0.00 0.20 0.18 74 1013.4
20260906054543 23 190 0.0 4.8 0.00 0.23 0.20 74 1015.6
20260906054043 23 190 0.0 4.8 0.00 0.23 0.20 74 1015.6
20260906053543 23 190 0.0 4.8 0.00 0.23 0.20 75 1015.6
20260906053104 23 190 3.2 8.0 0.00 0.20 0.18 74 1013.4
20260906053043 23 190 1.6 8.0 0.00 0.23 0.20 75 1015.6
20260906052543 24 190 1.6 8.0 0.00 0.23 0.20 73 1015.6
20260906052043 24 190 0.0 6.4 0.00 0.23 0.20 69 1015.6
20260906051606 24 190 0.0 6.4 0.00 0.20 0.18 67 1013.4
20260906051543 24 190 0.0 6.4 0.00 0.23 0.20 67 1015.5
20260906051043 24 190 3.2 6.4 0.00 0.23 0.20 69 1015.5
20260906050544 24 190 0.0 4.8 0.00 0.23 0.20 72 1015.5
20260906050110 24 0 0.0 6.4 0.00 0.20 0.18 71 1013.3
20260906050045 24 190 0.0 6.4 0.00 0.23 0.20 71 1015.5
20260906045542 24 190 1.6 6.4 0.00 0.23 0.20 72 1015.5
20260906045042 24 190 1.6 6.4 0.00 0.23 0.20 72 1015.5
20260906044602 24 190 1.6 4.8 0.00 0.20 0.18 71 1013.3
20260906044544 24 190 1.6 6.4 0.00 0.23 0.20 72 1015.5
20260906044042 24 190 0.0 4.8 0.00 0.23 0.20 72 1015.4
20260906043541 24 190 1.6 4.8 0.00 0.23 0.20 71 1015.3
20260906043106 24 0 0.0 0.0 0.00 0.20 0.18 70 1013.0
20260906043041 24 190 0.0 0.0 0.00 0.23 0.20 71 1015.2
20260906042541 24 190 0.0 0.0 0.00 0.23 0.20 71 1015.1
20260906042041 24 190 0.0 0.0 0.00 0.23 0.20 70 1015.1
20260906041602 25 0 0.0 0.0 0.00 0.20 0.18 69 1012.9
20260906041541 25 190 0.0 0.0 0.00 0.23 0.20 70 1015.1
20260906041041 25 190 0.0 0.0 0.00 0.23 0.20 69 1015.0
20260906040541 24 190 0.0 0.0 0.00 0.23 0.20 70 1014.9
20260906040105 24 0 0.0 0.0 0.00 0.20 0.18 70 1012.8
20260906040040 24 190 0.0 0.0 0.00 0.23 0.20 70 1014.9
20260906035541 24 190 0.0 0.0 0.00 0.23 0.20 71 1014.8
20260906035039 24 190 0.0 0.0 0.00 0.23 0.20 71 1014.7
20260906034606 24 0 0.0 4.8 0.00 0.20 0.18 70 1012.6
20260906034540 24 190 0.0 3.2 0.00 0.23 0.20 71 1014.7
20260906034039 24 190 0.0 4.8 0.00 0.23 0.20 71 1014.6
20260906033538 25 190 1.6 4.8 0.00 0.23 0.20 70 1014.5
20260906033106 25 190 0.0 3.2 0.00 0.20 0.18 68 1012.5
20260906033039 25 190 0.0 3.2 0.00 0.23 0.20 69 1014.5
20260906032538 25 190 0.0 0.0 0.00 0.23 0.20 68 1014.5
20260906032038 25 190 0.0 0.0 0.00 0.23 0.20 67 1014.2
20260906031606 25 0 0.0 0.0 0.00 0.20 0.18 67 1012.0
20260906031540 25 190 0.0 0.0 0.00 0.23 0.20 68 1014.1
20260906031038 25 190 0.0 0.0 0.00 0.23 0.20 68 1014.0
20260906030538 25 190 0.0 4.8 0.00 0.23 0.20 68 1013.8
20260906030038 25 190 0.0 6.4 0.00 0.23 0.20 68 1013.5
20260906025537 25 190 0.0 6.4 0.00 0.23 0.20 68 1013.2
20260906025037 25 190 1.6 6.4 0.00 0.23 0.20 67 1013.3
20260906024608 25 190 1.6 6.4 0.00 0.20 0.18 67 1011.1
20260906024540 25 190 1.6 6.4 0.00 0.23 0.20 68 1013.1
20260906024041 25 190 1.6 6.4 0.00 0.23 0.20 68 1012.9
20260906023537 25 190 1.6 8.0 0.00 0.23 0.20 67 1012.9
20260906023102 25 190 1.6 6.4 0.00 0.20 0.18 66 1010.9
20260906023045 25 190 1.6 6.4 0.00 0.23 0.20 67 1012.9
20260906022537 25 190 0.0 6.4 0.00 0.23 0.20 67 1012.8
20260906022039 25 190 0.0 3.2 0.00 0.23 0.20 67 1012.8
20260906021607 25 0 0.0 4.8 0.00 0.20 0.18 66 1010.8
20260906021543 25 190 0.0 4.8 0.00 0.23 0.20 67 1012.7
20260906021036 25 190 1.6 4.8 0.00 0.23 0.20 66 1012.7
20260906020536 25 190 0.0 6.4 0.00 0.23 0.20 66 1012.6
20260906020108 25 0 0.0 8.0 0.00 0.20 0.18 65 1010.7
20260906020036 25 190 0.0 8.0 0.00 0.23 0.20 65 1012.6
20260906015535 25 190 1.6 6.4 0.00 0.23 0.20 64 1012.5
20260906015036 25 190 3.2 6.4 0.00 0.23 0.20 64 1012.3
20260906014604 25 0 0.0 8.0 0.00 0.20 0.18 63 1010.3
20260906014546 25 190 0.0 6.4 0.00 0.23 0.20 64 1012.2
20260906014035 25 190 1.6 8.0 0.00 0.23 0.20 63 1012.1
20260906013535 25 190 1.6 4.8 0.00 0.23 0.20 63 1012.0
20260906013103 25 0 1.6 8.0 0.00 0.20 0.18 62 1010.2
20260906013042 25 190 0.0 8.0 0.00 0.23 0.20 63 1012.1
20260906012534 25 190 0.0 8.0 0.00 0.23 0.20 62 1012.0
20260906012035 26 190 3.2 8.0 0.00 0.23 0.20 61 1012.0
20260906011601 26 190 3.2 11.3 0.00 0.20 0.18 60 1010.1
20260906011536 26 190 3.2 8.0 0.00 0.23 0.20 61 1011.9
20260906011037 26 190 1.6 11.3 0.00 0.23 0.20 61 1011.8
20260906010534 26 190 3.2 11.3 0.00 0.23 0.20 61 1011.5
20260906010108 26 190 8.0 14.5 0.00 0.20 0.18 60 1009.5
20260906010034 26 190 6.4 12.9 0.00 0.23 0.20 61 1011.3
20260906005533 26 190 4.8 14.5 0.00 0.23 0.20 60 1011.3
20260906005034 26 190 3.2 12.9 0.00 0.23 0.20 60 1011.2
20260906004603 27 190 6.4 11.3 0.00 0.20 0.18 59 1009.4
20260906004534 27 190 6.4 12.9 0.00 0.23 0.20 59 1011.2
20260906004033 27 190 4.8 11.3 0.00 0.23 0.20 59 1011.0
20260906003533 27 190 3.2 9.7 0.00 0.23 0.20 59 1010.9
20260906003108 27 190 1.6 8.0 0.00 0.20 0.18 57 1009.2
20260906003033 27 190 3.2 8.0 0.00 0.23 0.20 57 1010.9
20260906002532 27 190 1.6 8.0 0.00 0.23 0.20 57 1010.9
20260906002033 27 190 0.0 9.7 0.00 0.23 0.20 56 1011.0
20260906001605 27 190 4.8 9.7 0.00 0.20 0.18 55 1009.2
20260906001532 27 190 3.2 9.7 0.00 0.23 0.20 55 1010.8
20260906001034 28 190 1.6 6.4 0.00 0.23 0.20 56 1010.7
20260906000531 28 190 0.0 1.6 0.00 0.23 0.20 56 1010.6
20260906000105 28 0 0.0 9.7 0.00 0.20 0.18 56 1008.8
20260906000031 28 190 0.0 8.0 0.00 0.23 0.20 56 1010.3
20260905235531 28 190 3.2 9.7 0.00 0.23 0.20 55 1010.2
20260905235031 28 190 1.6 9.7 0.00 0.23 0.20 56 1010.1
20260905234607 28 190 4.8 14.5 0.00 0.20 0.18 56 1008.6
20260905234531 28 190 3.2 11.3 0.00 0.23 0.20 56 1010.0
20260905234032 28 190 6.4 14.5 0.00 0.23 0.20 55 1009.8
20260905233534 28 190 6.4 16.1 0.00 0.23 0.20 55 1009.7
20260905233105 28 190 6.4 17.7 0.00 0.20 0.18 53 1007.9
20260905233031 28 190 6.4 17.7 0.00 0.23 0.20 54 1009.6
20260905232530 29 190 8.0 17.7 0.00 0.23 0.20 53 1009.4
20260905232030 30 190 4.8 16.1 0.00 0.23 0.20 53 1009.4
20260905231602 30 190 4.8 11.3 0.00 0.20 0.18 52 1007.7
20260905231530 30 190 3.2 11.3 0.00 0.23 0.20 52 1009.3
20260905231032 30 190 3.2 14.5 0.00 0.23 0.20 52 1009.1
20260905230529 30 190 6.4 14.5 0.00 0.23 0.20 51 1009.3
20260905230112 30 190 3.2 12.9 0.00 0.20 0.18 51 1007.7
20260905230028 30 190 3.2 12.9 0.00 0.23 0.20 52 1009.3
20260905225528 30 190 1.6 12.9 0.00 0.23 0.20 53 1009.2
20260905225028 31 190 1.6 12.9 0.00 0.23 0.20 52 1009.3
20260905224609 31 190 4.8 12.9 0.00 0.20 0.18 51 1007.7
20260905224531 31 190 3.2 12.9 0.00 0.23 0.20 50 1009.2
20260905224028 31 190 3.2 9.7 0.00 0.23 0.20 49 1009.3
20260905223530 31 190 4.8 9.7 0.00 0.23 0.20 48 1009.2
20260905223102 31 190 1.6 11.3 0.00 0.20 0.18 47 1007.6
20260905223028 31 190 1.6 11.3 0.00 0.23 0.20 48 1009.2
20260905222528 31 190 4.8 11.3 0.00 0.23 0.20 48 1009.2
20260905222027 31 190 1.6 9.7 0.00 0.23 0.20 47 1009.1
20260905221606 32 190 3.2 16.1 0.00 0.20 0.18 48 1007.5
20260905221528 32 190 1.6 16.1 0.00 0.23 0.20 48 1009.1
20260905221027 32 190 8.0 16.1 0.00 0.23 0.20 47 1009.2
20260905220527 32 190 0.0 14.5 0.00 0.23 0.20 46 1009.3
20260905220110 32 190 6.4 14.5 0.00 0.20 0.18 48 1007.6
20260905220026 32 190 4.8 14.5 0.00 0.23 0.20 47 1009.2
20260905215526 32 190 4.8 12.9 0.00 0.23 0.20 48 1009.2
20260905215028 32 190 4.8 11.3 0.00 0.23 0.20 48 1009.1
20260905214603 32 190 4.8 12.9 0.00 0.20 0.18 48 1007.5
20260905214525 32 190 4.8 12.9 0.00 0.23 0.20 48 1009.1
20260905214027 32 190 4.8 12.9 0.00 0.23 0.20 46 1009.0
20260905213522 32 190 0.0 8.0 0.00 0.23 0.20 46 1009.0
20260905213100 32 0 3.2 8.0 0.00 0.20 0.18 45 1007.4
20260905213022 32 190 0.0 8.0 0.00 0.23 0.20 46 1009.1
20260905212522 32 190 1.6 6.4 0.00 0.23 0.20 44 1009.2
20260905212021 31 190 0.0 6.4 0.00 0.23 0.20 46 1009.2
20260905211630 31 190 3.2 12.9 0.00 0.20 0.18 46 1007.7
20260905211522 31 190 1.6 9.7 0.00 0.23 0.20 46 1009.2
20260905211019 31 190 3.2 12.9 0.00 0.23 0.20 47 1009.2
20260905210518 31 190 3.2 6.4 0.00 0.23 0.20 46 1009.4
20260905210113 31 0 3.2 8.0 0.00 0.20 0.18 46 1008.2
20260905210015 31 190 3.2 6.4 0.00 0.23 0.20 46 1009.6
20260905205515 31 190 1.6 8.0 0.00 0.23 0.20 46 1009.7
20260905205014 31 190 1.6 8.0 0.00 0.23 0.20 47 1009.8
20260905204608 31 190 3.2 8.0 0.00 0.20 0.18 48 1008.4
20260905204513 31 190 3.2 8.0 0.00 0.23 0.20 47 1009.9
20260905204011 31 190 0.0 6.4 0.00 0.23 0.20 50 1009.9
20260905203511 31 190 0.0 12.9 0.00 0.23 0.20 50 1010.1
20260905203119 31 190 4.8 12.9 0.00 0.20 0.18 50 1008.8
20260905203010 31 190 6.4 12.9 0.00 0.23 0.20 50 1010.4
20260905202507 31 190 4.8 11.3 0.00 0.23 0.20 51 1010.6
20260905202007 31 190 1.6 6.4 0.00 0.23 0.20 52 1010.7
20260905201604 31 190 0.0 9.7 0.00 0.20 0.18 51 1009.3
20260905201510 31 190 0.0 9.7 0.00 0.23 0.20 51 1010.8
20260905201004 31 190 1.6 9.7 0.00 0.23 0.20 51 1011.0
20260905200504 30 190 1.6 6.4 0.00 0.23 0.20 52 1011.2
20260905200104 30 0 0.0 8.0 0.00 0.20 0.18 53 1009.9
20260905200001 30 190 0.0 8.0 0.00 0.23 0.20 53 1011.4
20260905195600 30 190 0.0 8.0 0.00 0.23 0.20 53 1011.5
20260905195059 30 190 1.6 6.4 0.00 0.23 0.20 55 1011.7
20260905194605 30 0 1.6 8.0 0.00 0.20 0.18 55 1010.3
20260905194559 30 190 0.0 6.4 0.00 0.23 0.20 56 1011.7
20260905194058 30 190 0.0 8.0 0.00 0.23 0.20 55 1012.0
20260905193557 30 190 3.2 8.0 0.00 0.23 0.20 55 1012.1
20260905193101 30 0 3.2 8.0 0.00 0.20 0.18 55 1010.7
20260905193056 30 190 1.6 8.0 0.00 0.23 0.20 55 1012.2
20260905192557 30 190 1.6 8.0 0.00 0.23 0.20 56 1012.3
20260905192053 30 190 1.6 8.0 0.00 0.23 0.20 55 1012.3
20260905191559 30 190 3.2 9.7 0.00 0.20 0.18 56 1010.9
20260905191552 29 190 3.2 8.0 0.00 0.23 0.20 57 1012.5
20260905191052 29 190 1.6 9.7 0.00 0.23 0.20 58 1012.5
20260905190553 29 190 6.4 11.3 0.00 0.23 0.20 58 1012.5
20260905190106 29 190 3.2 9.7 0.00 0.20 0.18 59 1011.0
20260905190057 29 190 6.4 11.3 0.00 0.23 0.20 59 1012.6
20260905185547 29 190 4.8 9.7 0.00 0.23 0.20 58 1012.7
20260905185046 29 190 3.2 9.7 0.00 0.23 0.20 60 1012.9
20260905184609 28 190 1.6 9.7 0.00 0.20 0.18 60 1011.3
20260905184547 28 190 1.6 9.7 0.00 0.23 0.20 61 1013.0
20260905184045 28 190 4.8 9.7 0.00 0.23 0.20 60 1013.1
20260905183544 28 190 0.0 4.8 0.00 0.23 0.20 61 1013.2
20260905183102 28 190 1.6 8.0 0.00 0.20 0.18 58 1011.5
20260905183049 28 190 1.6 6.4 0.00 0.23 0.20 58 1013.3
20260905182542 28 190 1.6 8.0 0.00 0.23 0.20 60 1013.4
20260905182041 28 190 1.6 4.8 0.00 0.23 0.20 60 1013.5
20260905181612 28 190 0.0 6.4 0.00 0.20 0.18 60 1011.9
20260905181544 28 190 0.0 4.8 0.00 0.23 0.20 60 1013.5
20260905181038 27 190 0.0 6.4 0.00 0.23 0.20 64 1013.6
20260905180538 27 190 1.6 6.4 0.00 0.23 0.20 64 1013.6
20260905180108 27 190 1.6 8.0 0.00 0.20 0.18 65 1012.1
20260905180036 27 190 1.6 6.4 0.00 0.23 0.20 66 1013.6
20260905175537 27 190 1.6 8.0 0.00 0.23 0.20 65 1013.7
20260905175033 27 190 1.6 8.0 0.00 0.23 0.20 66 1013.9
20260905174603 27 190 0.0 8.0 0.00 0.20 0.18 66 1012.3
20260905174534 26 190 1.6 8.0 0.00 0.23 0.20 66 1014.0
20260905174035 26 190 1.6 8.0 0.00 0.23 0.20 67 1014.1
20260905173532 26 190 0.0 4.8 0.00 0.23 0.20 66 1014.2
20260905173103 26 0 0.0 9.7 0.00 0.20 0.18 69 1012.7
20260905173030 26 190 0.0 9.7 0.00 0.23 0.20 69 1014.4
20260905172530 26 190 1.6 9.7 0.00 0.23 0.20 68 1014.6
20260905172030 26 190 0.0 8.0 0.00 0.23 0.20 69 1014.7
20260905171602 26 190 1.6 8.0 0.00 0.20 0.18 68 1013.3
20260905171542 26 190 3.2 8.0 0.00 0.23 0.20 69 1014.9
20260905171026 25 190 0.0 6.4 0.00 0.23 0.20 71 1015.0
20260905170526 25 190 3.2 6.4 0.00 0.23 0.20 71 1015.1
20260905170108 25 0 0.0 6.4 0.00 0.20 0.18 71 1013.5
20260905170025 25 190 0.0 6.4 0.00 0.23 0.20 72 1015.1
20260905165524 25 190 0.0 6.4 0.00 0.23 0.20 72 1015.2
20260905165024 25 190 1.6 6.4 0.00 0.23 0.20 73 1015.2
20260905164605 25 190 1.6 6.4 0.00 0.20 0.18 72 1013.7
20260905164524 25 190 0.0 6.4 0.00 0.23 0.20 73 1015.2
20260905164024 25 190 1.6 6.4 0.00 0.23 0.20 74 1015.2
20260905163524 25 190 3.2 6.4 0.00 0.23 0.20 73 1015.4
20260905163103 25 0 0.0 4.8 0.00 0.20 0.18 72 1014.0
20260905163023 25 190 0.0 3.2 0.00 0.23 0.20 71 1015.5
20260905162521 25 190 0.0 4.8 0.00 0.23 0.20 72 1015.6
20260905162020 25 190 1.6 4.8 0.00 0.23 0.20 74 1015.7
20260905161605 24 0 1.6 4.8 0.00 0.20 0.18 77 1014.3
20260905161521 24 190 0.0 4.8 0.00 0.23 0.20 77 1015.9
20260905161020 24 190 1.6 4.8 0.00 0.23 0.20 76 1015.9
20260905160519 24 190 0.0 0.0 0.00 0.23 0.20 77 1015.9
20260905160137 23 0 0.0 1.6 0.00 0.20 0.18 78 1014.4
20260905160020 23 190 0.0 0.0 0.00 0.23 0.20 79 1016.0
20260905155519 23 190 0.0 1.6 0.00 0.23 0.20 81 1016.1
20260905155016 23 190 0.0 1.6 0.00 0.23 0.20 82 1016.1
20260905154603 23 0 0.0 0.0 0.00 0.20 0.18 82 1014.5
20260905154516 23 190 0.0 0.0 0.00 0.23 0.20 83 1016.0
20260905154016 23 190 0.0 0.0 0.00 0.23 0.20 82 1016.0
20260905153516 23 190 0.0 3.2 0.00 0.23 0.20 83 1015.9
20260905153106 23 0 0.0 1.6 0.00 0.20 0.18 82 1014.3
20260905153017 23 190 0.0 1.6 0.00 0.23 0.20 82 1015.9
20260905152516 23 190 0.0 0.0 0.00 0.23 0.20 81 1015.8
20260905152018 23 190 0.0 3.2 0.00 0.23 0.20 82 1015.9
20260905151610 23 0 1.6 3.2 0.00 0.20 0.18 81 1014.2
20260905151516 23 190 0.0 3.2 0.00 0.23 0.20 82 1015.8
20260905151018 23 190 0.0 3.2 0.00 0.23 0.20 82 1015.8
20260905150515 23 190 0.0 0.0 0.00 0.23 0.20 83 1015.9
20260905150105 22 0 0.0 1.6 0.00 0.20 0.18 83 1014.3
20260905150012 22 190 0.0 0.0 0.00 0.23 0.20 83 1016.0
20260905145510 22 190 0.0 1.6 0.00 0.23 0.20 85 1016.0
20260905145009 22 190 0.0 1.6 0.00 0.23 0.20 85 1016.0
20260905144605 22 0 0.0 1.6 0.00 0.20 0.18 85 1014.1
20260905144516 22 190 0.0 1.6 0.00 0.23 0.20 86 1015.9
20260905144010 22 190 0.0 1.6 0.00 0.23 0.20 87 1016.0
20260905143510 22 190 0.0 1.6 0.00 0.23 0.20 86 1016.0
20260905143113 22 0 0.0 0.0 0.00 0.20 0.18 85 1014.1
20260905143007 22 190 0.0 0.0 0.00 0.23 0.20 87 1015.9
20260905142507 21 190 0.0 0.0 0.00 0.23 0.20 87 1016.0
20260905142004 21 190 0.0 0.0 0.00 0.23 0.20 88 1015.9
20260905141610 21 0 0.0 0.0 0.00 0.20 0.18 87 1014.0
20260905141505 21 190 0.0 0.0 0.00 0.23 0.20 88 1016.0
20260905141006 21 190 0.0 0.0 0.00 0.23 0.20 88 1016.0
20260905140504 21 190 0.0 0.0 0.00 0.23 0.20 89 1016.0
20260905140106 21 0 0.0 0.0 0.00 0.20 0.18 89 1014.0
20260905140004 21 190 0.0 0.0 0.00 0.23 0.20 89 1016.0
20260905135502 20 190 0.0 0.0 0.00 0.23 0.20 90 1015.9
20260905135002 20 190 0.0 0.0 0.00 0.23 0.20 91 1015.8
20260905134610 20 0 0.0 0.0 0.00 0.20 0.18 90 1013.9
20260905134502 20 190 0.0 0.0 0.00 0.23 0.20 91 1015.8
20260905134003 20 190 0.0 0.0 0.00 0.23 0.20 92 1015.8
20260905133502 20 190 0.0 1.6 0.00 0.23 0.20 92 1015.8
20260905133107 20 0 0.0 1.6 0.00 0.20 0.18 92 1014.0
20260905133001 20 190 0.0 1.6 0.00 0.23 0.20 92 1015.8
20260905132502 20 190 0.0 0.0 0.00 0.23 0.20 93 1015.8
20260905132104 20 190 0.0 0.0 0.00 0.23 0.20 94 1015.7
20260905131616 20 190 0.0 0.0 0.00 0.23 0.20 94 1015.6
20260905131607 20 0 0.0 0.0 0.00 0.20 0.18 94 1013.8
20260905131059 20 190 0.0 0.0 0.00 0.23 0.20 94 1015.6
20260905130601 20 190 0.0 0.0 0.00 0.23 0.20 94 1015.7
20260905130105 20 0 0.0 0.0 0.00 0.20 0.18 94 1013.8
20260905130058 20 190 0.0 0.0 0.00 0.23 0.20 94 1015.6
20260905125557 20 190 0.0 0.0 0.00 0.23 0.20 95 1015.5
20260905125058 19 190 0.0 0.0 0.00 0.23 0.20 94 1015.6
20260905124607 20 0 0.0 3.2 0.00 0.20 0.18 94 1013.7
20260905124557 19 190 0.0 3.2 0.00 0.23 0.20 94 1015.5
20260905124055 19 190 0.0 3.2 0.00 0.23 0.20 94 1015.4
20260905123555 19 190 0.0 0.0 0.00 0.23 0.20 94 1015.2
20260905123109 19 0 0.0 0.0 0.00 0.20 0.18 93 1013.5
20260905123056 19 190 0.0 0.0 0.00 0.23 0.20 94 1015.1
20260905122554 19 190 0.0 0.0 0.00 0.23 0.20 94 1015.1
20260905122053 19 190 0.0 0.0 0.00 0.23 0.20 94 1015.1
20260905121612 20 0 0.0 0.0 0.00 0.20 0.18 94 1013.3
20260905121553 20 190 0.0 0.0 0.00 0.23 0.20 94 1015.0
20260905121051 20 190 0.0 0.0 0.00 0.23 0.20 94 1014.9
20260905120554 20 190 0.0 0.0 0.00 0.23 0.20 94 1014.8
20260905120121 20 0 0.0 0.0 0.00 0.20 0.18 94 1013.0
20260905120050 20 190 0.0 0.0 0.00 0.23 0.20 94 1014.6
20260905115550 20 190 0.0 0.0 0.00 0.23 0.20 94 1014.5
20260905115050 20 190 0.0 0.0 0.00 0.23 0.20 94 1014.5
20260905114611 20 0 0.0 1.6 0.00 0.20 0.18 94 1012.8
20260905114552 20 190 0.0 0.0 0.00 0.23 0.20 94 1014.4
20260905114049 20 190 0.0 1.6 0.00 0.23 0.20 94 1014.4
20260905113549 20 190 0.0 1.6 0.00 0.23 0.20 94 1014.1
20260905113110 20 0 0.0 1.6 0.00 0.20 0.18 94 1012.5
20260905113049 20 190 0.0 1.6 0.00 0.23 0.20 94 1014.2
20260905112549 20 190 0.0 1.6 0.00 0.23 0.20 94 1014.3
20260905112047 20 190 0.0 0.0 0.00 0.23 0.20 94 1014.2
20260905111613 20 0 0.0 0.0 0.00 0.20 0.18 93 1012.5
20260905111547 20 190 0.0 0.0 0.00 0.23 0.20 94 1014.1
20260905111048 20 190 0.0 0.0 0.00 0.23 0.20 94 1014.1
20260905110545 20 190 0.0 0.0 0.00 0.23 0.20 93 1014.0
20260905110109 20 0 0.0 0.0 0.00 0.20 0.18 93 1012.3
20260905110044 20 190 0.0 0.0 0.00 0.23 0.20 94 1014.0
20260905105544 20 190 0.0 0.0 0.00 0.23 0.20 93 1013.9
20260905105044 20 190 0.0 0.0 0.00 0.23 0.20 94 1013.9
20260905104605 20 0 0.0 0.0 0.00 0.20 0.18 93 1012.2
20260905104553 20 190 0.0 0.0 0.00 0.23 0.20 94 1013.9
20260905104044 20 190 0.0 0.0 0.00 0.23 0.20 93 1013.9
20260905103547 20 190 0.0 0.0 0.00 0.23 0.20 94 1014.0
20260905103100 20 0 0.0 0.0 0.00 0.20 0.18 93 1012.4
20260905103048 20 190 0.0 0.0 0.00 0.23 0.20 93 1014.0
20260905102542 20 190 0.0 0.0 0.00 0.23 0.20 93 1014.1
20260905102042 20 190 0.0 0.0 0.00 0.23 0.20 93 1014.1
20260905101601 20 0 0.0 0.0 0.00 0.20 0.18 93 1012.4
20260905101542 20 190 0.0 0.0 0.00 0.23 0.20 93 1014.1
20260905101041 20 190 0.0 0.0 0.03 0.23 0.20 93 1014.1
20260905100543 20 190 0.0 0.0 0.03 0.23 0.20 94 1014.2
20260905100110 20 0 0.0 3.2 0.00 0.20 0.18 93 1012.7
20260905100040 20 190 0.0 3.2 0.03 0.23 0.20 94 1014.4
20260905095539 20 190 0.0 3.2 0.03 0.23 0.20 93 1014.4
20260905095039 20 190 0.0 1.6 0.03 0.23 0.20 93 1014.3
20260905094602 20 0 0.0 0.0 0.00 0.20 0.18 92 1012.7
20260905094539 20 190 0.0 0.0 0.03 0.23 0.20 92 1014.3
20260905094037 20 190 0.0 3.2 0.05 0.23 0.20 92 1014.3
20260905093539 20 190 0.0 3.2 0.05 0.23 0.20 92 1014.4
20260905093102 21 0 1.6 3.2 0.08 0.20 0.18 91 1012.9
20260905093040 21 190 0.0 3.2 0.08 0.23 0.20 92 1014.5
20260905092538 21 190 0.0 0.0 0.10 0.23 0.20 92 1014.6
20260905092035 21 190 0.0 0.0 0.13 0.23 0.20 92 1014.6
20260905091622 21 0 0.0 0.0 0.10 0.20 0.18 91 1013.0
20260905091537 21 190 0.0 0.0 0.15 0.23 0.20 92 1014.6
20260905091035 21 190 0.0 0.0 0.13 0.20 0.18 92 1014.6
20260905090533 21 190 0.0 0.0 0.13 0.20 0.18 92 1014.7
20260905090121 21 0 0.0 0.0 0.13 0.18 0.18 92 1013.2
20260905090035 21 190 0.0 0.0 0.15 0.20 0.18 92 1014.8
20260905085532 21 190 0.0 0.0 0.15 0.20 0.18 92 1014.8